Location: Powder Track
(41.8531°N, 72.3584°W)
Time: 08:28:47
(UTC+00:00)

Transit 4A - Pass Details

Date: 12 August 2021
Orbit: 871 x 974 km, 66.8° (Epoch: 20 September)

Event Time Altitude Azimuth Distance (km) Brightness Sun altitude
Rises 10:50:17 0° 331° (NNW) 3,483 10.7 9.1°
Reaches altitude 10° 10:52:46 10° 333° (NNW) 2,550 10.1 9.5°
Maximum altitude 10:58:40 75° 59° (ENE) 933 8.4 10.6°
Drops below altitude 10° 11:04:41 10° 144° (SE) 2,599 10.7 11.7°
Sets 11:07:14 0° 146° (SSE) 3,554 11.3 12.2°
